Regional Weather Roundup
Issued by NWS Nashville, TN

Current Version | Previous Version | Text Only | Print | Product List | Glossary On
Versions: 1 2 3 4 5 6 7 8 9 10 11 12 13 14 15 16 17 18 19 20 21 22 23 24 25 26 27 28
000
ASUS44 KOHX 282010
RWROHX
MIDDLE TENNESSEE HOURLY WEATHER ROUNDUP
NATIONAL WEATHER SERVICE NASHVILLE TN
300 PM CDT THU JUL 28 2016

NOTE: "FAIR" INDICATES FEW OR NO CLOUDS BELOW 12,000 FEET WITH
NO SIGNIFICANT WEATHER AND/OR OBSTRUCTIONS TO VISIBILITY.

* THESE REPORTS ARE NOT UNDER NWS QUALITY CONTROL AND MAY NOT
  REPORT WEATHER SUCH AS PRECIPITATION AND FOG.


TNZ005>011-023>034-057-059-062>066-078-080-282100
...NORTHERN MIDDLE TENNESSEE...

CITY           SKY/WX    TMP DP  RH WIND       PRES   REMARKS
CLARKSVILLE    CLOUDY    84  71  65 CALM      29.90F
CROSSVILLE     CLOUDY    74  72  93 SW5       29.97S
NASHVILLE      PTSUNNY   83  71  67 NW8       29.92S
SMYRNA         CLOUDY    81  75  81 N10       29.92S
SPARTA         PTSUNNY   79  75  89 VRB7      29.91F
$$
TNZ056-058-060-061-075>077-079-093>097-282100
...SOUTHERN MIDDLE TENNESSEE...

CITY           SKY/WX    TMP DP  RH WIND       PRES   REMARKS
COLUMBIA       CLOUDY    82  82 100 W7        29.92S HX  97
FAYETTEVILLE   MOSUNNY   81  75  83 W8        29.95F
MCMINNVILLE    PTSUNNY   77  77 100 SW8       29.94R
SHELBYVILLE    CLOUDY    81  75  83 W10       29.94S
TULLAHOMA      PTSUNNY   82  72  69 W10       29.95S
WINCHESTER     CLOUDY    73  72  94 W10       29.97R
$$


...KEY TO REMARKS...
VSB - VISIBILITY IN MILES
WCI - WIND CHILL INDEX
HX  - HEAT INDEX





USA.gov is the U.S. government's official web portal to all federal, state and local government web resources and services.